[[{"header":{"parameterUnit":"m.s-1","parameterCategory":1,"la1":30.2991,"la2":30.254,"lo1":-89.0895,"lo2":-89.0444,"dy":0.0017,"dx":0.0017,"nx":28,"ny":28,"refTime":"2024-03-12T03:00:00:Z","depth":0,"parameterNumber":2,"parameterNumberName":"U-component_of_WINDS"},"data":[0,0,0,0,0,0,0,0,0,0,0,0,0,0,0,0,0,0,0,0,0,0,0,0,0,0,0,0,0,0,0,0,0,0,0,0,0,0,0,0,0,0,0,0,0,0,0,0,0,0,0,0,0,0,0,0,0,0,-0.6982,-0.6983,0,-0.7005,-0.7005,-0.7005,-0.7024,-0.7024,-0.7024,-0.7024,-0.7048,-0.7049,-0.7049,0,0,0,0,0,0,0,0,0,0,0,0,0,-0.6957,-0.6957,-0.6982,-0.6983,-0.6983,-0.7005,-0.7005,-0.7005,-0.7024,-0.7024,-0.7024,-0.7024,-0.7048,-0.7049,-0.7049,0,0,0,0,0,0,0,0,0,0,0,0,0,-0.6972,-0.6957,-0.6982,-0.6995,-0.6996,-0.7005,-0.7005,-0.7006,-0.7024,-0.7024,-0.7024,-0.7024,-0.7048,-0.7049,-0.7049,-0.7048,0,0,-0.7051,-0.7052,0,0,0,0,0,0,0,0,-0.6971,-0.6973,-0.6993,-0.6994,-0.6995,-0.7012,-0.7005,-0.702,-0.7024,-0.7013,-0.7024,-0.7025,-0.7036,-0.7038,-0.7041,-0.7049,-0.705,-0.7051,-0.7052,-0.7052,-0.7052,0,0,0,0,0,0,0,-0.697,-0.6972,-0.6991,-0.6993,-0.6995,-0.7,-0.7002,-0.7008,-0.7023,-0.7014,-0.7015,-0.7018,-0.7037,-0.7041,-0.7042,-0.705,-0.7051,-0.7052,-0.7052,-0.7053,-0.7059,-0.7059,0,0,0,0,0,0,-0.6967,-0.6971,-0.6991,-0.6992,-0.6984,-0.7,-0.7003,-0.7006,-0.7023,-0.7025,-0.7018,-0.7019,-0.7039,-0.7041,-0.7043,-0.7043,-0.7052,-0.7053,-0.7053,-0.7059,-0.7059,-0.7059,0,0,0,0,0,0,-0.6967,-0.6969,-0.699,-0.6982,-0.6985,-0.7,-0.7004,-0.7007,-0.701,-0.7025,-0.7028,-0.7019,-0.704,-0.7042,-0.7047,-0.7044,-0.7053,-0.7054,-0.706,-0.7059,-0.7059,-0.7042,0,0,0,0,0,0,-0.6966,-0.6968,-0.6968,-0.6982,-0.6985,-0.6993,-0.7004,-0.7007,-0.7011,-0.7013,-0.7027,-0.703,-0.704,-0.7045,-0.7047,-0.7045,-0.7054,-0.706,-0.7059,-0.7059,-0.7043,-0.7041,-0.704,0,0,0,0,0,-0.6965,-0.6962,-0.6967,-0.697,-0.6985,-0.6992,-0.6994,-0.7006,-0.7011,-0.7011,-0.702,-0.7029,-0.7044,-0.7046,-0.7048,-0.7046,-0.706,-0.706,-0.7059,-0.7044,-0.7041,-0.704,0,0,0,0,0,0,-0.6947,-0.6964,-0.697,-0.6972,-0.6981,-0.6995,-0.6995,-0.7003,-0.7011,-0.7012,-0.7026,-0.7029,-0.7033,-0.704,-0.7042,-0.7046,-0.7053,-0.7053,-0.7041,-0.7039,-0.7037,-0.7035,-0.7055,0,0,0,0,0,-0.6943,-0.6948,-0.6963,-0.6963,-0.6967,-0.698,-0.6984,-0.6992,-0.7002,-0.7005,-0.7016,-0.7025,-0.7032,-0.7036,-0.7043,-0.7044,-0.7048,-0.7044,-0.7042,-0.7041,-0.704,-0.7042,-0.7041,-0.7057,-0.7057,-0.7057,0,0,-0.6936,-0.6946,-0.6948,-0.6959,-0.6967,-0.6972,-0.6983,-0.6987,-0.6991,-0.7006,-0.7011,-0.7019,-0.703,-0.7034,-0.7036,-0.704,-0.7037,-0.704,-0.7039,-0.7039,-0.7042,-0.704,-0.7039,-0.7057,-0.7057,-0.7057,0,0,-0.6924,-0.6932,-0.6933,-0.6941,-0.6952,-0.6961,-0.6961,-0.6975,-0.6981,-0.6986,-0.6998,-0.7003,-0.7014,-0.7022,-0.7027,-0.7019,-0.7028,-0.7021,-0.7012,-0.7014,-0.7013,-0.7012,-0.7009,-0.7008,-0.7021,-0.7021,-0.7021,0,-0.6913,-0.692,-0.6933,-0.6936,-0.6941,-0.6955,-0.6957,-0.6964,-0.6977,-0.698,-0.6985,-0.7,-0.7008,-0.7014,-0.7012,-0.7016,-0.7017,-0.7019,-0.7012,-0.7011,-0.701,-0.7008,-0.7007,-0.702,-0.702,-0.702,-0.702,0,-0.6906,-0.6911,-0.6911,-0.6923,-0.6928,-0.6931,-0.6944,-0.6948,-0.6956,-0.6965,-0.697,-0.6981,-0.6991,-0.6993,-0.7001,-0.7,-0.7002,-0.7009,-0.7017,-0.7007,-0.7006,-0.7005,-0.7019,-0.7019,-0.7019,-0.702,0,0,-0.6884,-0.6903,-0.6903,-0.6909,-0.6922,-0.6927,-0.693,-0.6939,-0.6943,-0.6952,-0.6955,-0.6965,-0.6971,-0.6978,-0.6987,-0.6988,-0.6982,-0.6995,-0.6996,-0.6992,-0.6981,-0.6976,-0.6974,-0.6988,-0.6987,-0.6987,-0.698,0,-0.6874,-0.6881,-0.6892,-0.6895,-0.69,-0.6914,-0.6917,-0.6927,-0.6935,-0.6941,-0.6951,-0.6957,-0.6966,-0.6969,-0.6971,-0.6982,-0.698,-0.6983,-0.6991,-0.6992,-0.6988,-0.6973,-0.6967,-0.696,-0.698,-0.698,-0.6979,0,-0.6864,-0.6872,-0.6875,-0.6889,-0.6891,-0.6894,-0.6904,-0.6909,-0.692,-0.6926,-0.6934,-0.6944,-0.6949,-0.6956,-0.6964,-0.6966,-0.697,-0.6976,-0.6976,-0.6977,-0.6985,-0.6974,-0.6958,-0.6957,-0.6978,-0.6978,-0.6979,0,-0.6847,-0.6858,-0.6862,-0.6866,-0.6883,-0.6884,-0.6892,-0.6903,-0.6908,-0.6917,-0.692,-0.693,-0.6935,-0.6942,-0.6955,-0.6959,-0.6961,-0.697,-0.6967,-0.6966,-0.6966,-0.6966,-0.6951,-0.6969,-0.6969,-0.6969,-0.6969,0,-0.6835,-0.6836,-0.6854,-0.6856,-0.6859,-0.6873,-0.6875,-0.6883,-0.6894,-0.6898,-0.6911,-0.6915,-0.6932,-0.6938,-0.6948,-0.6953,-0.6955,-0.6961,-0.6963,-0.6959,-0.6959,-0.6962,-0.6963,-0.6969,-0.6969,-0.6969,-0.6969,0,-0.6816,-0.6828,-0.6833,-0.6848,-0.6852,-0.6853,-0.6867,-0.687,-0.6879,-0.6885,-0.6887,-0.6902,-0.691,-0.6924,-0.6936,-0.6943,-0.6946,-0.695,-0.6942,-0.6943,-0.694,-0.694,-0.6926,-0.6925,-0.6944,-0.6944,-0.6944,0,-0.6807,-0.6808,-0.6824,-0.6828,-0.6834,-0.684,-0.6845,-0.6859,-0.6864,-0.6878,-0.6879,-0.6888,-0.6896,-0.6909,-0.6921,-0.6931,-0.6935,-0.693,-0.6937,-0.6933,-0.6935,-0.6935,-0.6935,-0.6928,-0.6928,-0.6928,-0.6927,0,-0.679,-0.6796,-0.6803,-0.6812,-0.6818,-0.6826,-0.6834,-0.6837,-0.6853,-0.6858,-0.6867,-0.6873,-0.6885,-0.6894,-0.6906,-0.6914,-0.6923,-0.6925,-0.6925,-0.6921,-0.6916,-0.6918,-0.6937,-0.6925,-0.6926,-0.6926,-0.6926,-0.6926,-0.6776,-0.6778,-0.6789,-0.6797,-0.6805,-0.6813,-0.6816,-0.6826,-0.6833,-0.6844,-0.6853,-0.686,-0.6872,-0.6889,-0.6896,-0.6903,-0.6907,-0.6907,-0.6907,-0.6906,-0.6905,-0.6915,-0.6905,-0.6905,-0.6905,-0.6905,-0.6905,0,-0.676,-0.6768,-0.6775,-0.6786,-0.6792,-0.6801,-0.6811,-0.6815,-0.6822,-0.6832,-0.684,-0.6849,-0.6858,-0.6872,-0.6882,-0.6885,-0.689,-0.6887,-0.6887,-0.6889,-0.6901,-0.69,-0.6883,-0.6883,-0.6883,-0.6883,-0.6883,-0.6883,-0.6752,-0.6756,-0.6764,-0.6772,-0.6781,-0.6788,-0.6793,-0.6801,-0.6809,-0.6819,-0.6826,-0.6835,-0.6847,-0.6858,-0.6867,-0.6871,-0.6874,-0.687,-0.6875,-0.6886,-0.6888,-0.689,-0.6889,-0.6871,-0.6871,-0.6863,-0.6863,-0.6863]},{"header":{"parameterUnit":"m.s-1","parameterCategory":1,"la1":30.2991,"la2":30.254,"lo1":-89.0895,"lo2":-89.0444,"dy":0.0017,"dx":0.0017,"nx":28,"ny":28,"refTime":"2024-03-12T03:00:00:Z","depth":0,"parameterNumber":3,"parameterNumberName":"V-component_of_WINDS"},"data":[0,0,0,0,0,0,0,0,0,0,0,0,0,0,0,0,0,0,0,0,0,0,0,0,0,0,0,0,0,0,0,0,0,0,0,0,0,0,0,0,0,0,0,0,0,0,0,0,0,0,0,0,0,0,0,0,0,0,2.3034,2.3036,0,2.3177,2.3178,2.318,2.3199,2.3197,2.3196,2.3195,2.3337,2.3342,2.3347,0,0,0,0,0,0,0,0,0,0,0,0,0,2.2775,2.278,2.3034,2.3036,2.3038,2.3176,2.3178,2.318,2.3199,2.3197,2.3195,2.3194,2.3335,2.3341,2.3347,0,0,0,0,0,0,0,0,0,0,0,0,0,2.29,2.2782,2.3034,2.3064,2.3068,2.3176,2.3178,2.3181,2.3199,2.3197,2.3195,2.3193,2.3333,2.3341,2.3348,2.3435,0,0,2.3371,2.3375,0,0,0,0,0,0,0,0,2.2893,2.2909,2.3058,2.3062,2.3067,2.3168,2.3139,2.3266,2.32,2.3149,2.3195,2.3192,2.3282,2.3294,2.3325,2.3442,2.3448,2.3372,2.3377,2.338,2.3382,0,0,0,0,0,0,0,2.2884,2.2903,2.3091,2.306,2.3065,2.3069,2.3085,2.3163,2.3225,2.3153,2.3155,2.3172,2.3284,2.3317,2.3328,2.345,2.3372,2.3379,2.3383,2.3386,2.3645,2.3648,0,0,0,0,0,0,2.287,2.2896,2.3086,2.3095,2.2973,2.3075,2.3093,2.3137,2.3224,2.3236,2.3173,2.3172,2.3306,2.3319,2.3333,2.3441,2.338,2.3387,2.3391,2.3643,2.3646,2.3648,0,0,0,0,0,0,2.2865,2.2887,2.308,2.2996,2.3021,2.3082,2.3132,2.3141,2.3175,2.324,2.325,2.3196,2.3304,2.3323,2.341,2.3446,2.339,2.3397,2.364,2.3644,2.3647,2.3656,0,0,0,0,0,0,2.2857,2.2885,2.292,2.2997,2.3025,2.3155,2.3134,2.3145,2.3188,2.3188,2.3264,2.3275,2.3304,2.3399,2.3417,2.3455,2.3403,2.3637,2.3642,2.3646,2.3653,2.366,2.3665,0,0,0,0,0,2.2848,2.2916,2.2921,2.2944,2.307,2.3158,2.3174,2.3208,2.3191,2.3225,2.3267,2.3272,2.3439,2.3407,2.3429,2.3469,2.3635,2.3641,2.3646,2.365,2.3658,2.3665,0,0,0,0,0,0,2.284,2.2926,2.2933,2.3029,2.3086,2.3161,2.3205,2.3215,2.3278,2.3275,2.3313,2.333,2.3415,2.3451,2.3414,2.3558,2.3535,2.3545,2.3531,2.354,2.3546,2.3535,2.3409,0,0,0,0,0,2.285,2.2915,2.2986,2.3063,2.3092,2.3144,2.3183,2.3204,2.3265,2.3289,2.3337,2.3394,2.3459,2.3502,2.3565,2.3658,2.3675,2.3697,2.3703,2.3708,2.3715,2.3767,2.3777,2.3666,2.3666,2.3666,0,0,2.287,2.2925,2.2964,2.3063,2.311,2.3176,2.3164,2.3234,2.3282,2.3299,2.3384,2.3422,2.3488,2.3578,2.3621,2.3611,2.375,2.3714,2.3718,2.3723,2.3773,2.3784,2.3793,2.3669,2.3669,2.3668,0,0,2.294,2.2989,2.3058,2.3106,2.3177,2.3211,2.3227,2.3301,2.3327,2.3413,2.3427,2.3485,2.3597,2.3644,2.3682,2.377,2.3776,2.3789,2.3821,2.3871,2.3879,2.3887,2.3918,2.3928,2.3797,2.3797,2.3797,0,2.2956,2.3057,2.3092,2.3162,2.3205,2.3224,2.3294,2.3337,2.3425,2.3454,2.3442,2.3583,2.3629,2.3731,2.3752,2.3783,2.3802,2.378,2.3875,2.3884,2.3892,2.3921,2.3933,2.3798,2.3798,2.3798,2.3798,0,2.3072,2.3141,2.3188,2.3274,2.3322,2.3391,2.3437,2.3481,2.3498,2.3533,2.362,2.3676,2.3752,2.3777,2.3794,2.3881,2.3873,2.3868,2.3846,2.3903,2.3931,2.3943,2.38,2.3799,2.3799,2.3799,0,0,2.3141,2.3246,2.3263,2.3301,2.3381,2.3435,2.3504,2.3579,2.3616,2.3676,2.3735,2.3829,2.3825,2.3869,2.3891,2.3934,2.3999,2.3924,2.3926,2.3935,2.4097,2.41,2.4113,2.4004,2.4007,2.4008,2.4091,0,2.322,2.3346,2.338,2.3486,2.355,2.3569,2.3629,2.3684,2.3719,2.3777,2.3815,2.3881,2.3871,2.3897,2.3941,2.3982,2.4032,2.3977,2.4058,2.4061,2.404,2.4128,2.4131,2.4206,2.4103,2.4105,2.4106,0,2.3329,2.3392,2.3505,2.3576,2.3604,2.3658,2.3729,2.3785,2.3847,2.3869,2.3918,2.3936,2.4008,2.3983,2.4082,2.4043,2.4079,2.4104,2.4108,2.4116,2.4086,2.4138,2.4232,2.4243,2.4124,2.4123,2.4121,0,2.3368,2.3481,2.3563,2.3595,2.3681,2.3718,2.3755,2.3816,2.3858,2.3919,2.3947,2.4016,2.4053,2.4106,2.4142,2.412,2.4238,2.4215,2.4257,2.4256,2.4281,2.4278,2.4381,2.4304,2.4304,2.4304,2.4304,0,2.3452,2.352,2.3581,2.3631,2.3708,2.3746,2.382,2.3858,2.3911,2.3968,2.3988,2.4041,2.4086,2.4145,2.4173,2.4251,2.4268,2.4286,2.4293,2.4285,2.4282,2.4308,2.4303,2.4307,2.4306,2.4306,2.4305,0,2.3508,2.3552,2.3642,2.3716,2.3736,2.3788,2.3851,2.39,2.3935,2.4007,2.4026,2.408,2.4151,2.4192,2.428,2.4299,2.4385,2.4389,2.4364,2.4367,2.4406,2.4401,2.4528,2.4546,2.4458,2.4459,2.4459,0,2.3559,2.3612,2.3691,2.3731,2.3769,2.3833,2.3877,2.3916,2.396,2.4035,2.4075,2.4146,2.4206,2.4317,2.4363,2.4431,2.4437,2.4477,2.4447,2.4437,2.4437,2.4433,2.4438,2.4481,2.4482,2.4483,2.4483,0,2.3644,2.3663,2.3726,2.3796,2.3847,2.3904,2.396,2.3992,2.404,2.4089,2.4161,2.4207,2.4298,2.4368,2.444,2.4477,2.4488,2.4492,2.4505,2.4497,2.448,2.4489,2.4377,2.4489,2.4488,2.4488,2.4488,2.4487,2.3699,2.3746,2.3809,2.3878,2.3925,2.3977,2.4027,2.4068,2.4129,2.4206,2.4226,2.4301,2.4362,2.4459,2.4498,2.4557,2.455,2.4569,2.4574,2.4578,2.4579,2.4471,2.457,2.457,2.457,2.457,2.457,0,2.3785,2.3826,2.3889,2.3967,2.4021,2.4028,2.4091,2.4135,2.4202,2.4257,2.4315,2.4398,2.4466,2.4519,2.4589,2.4626,2.4632,2.4643,2.464,2.4648,2.4581,2.4562,2.4636,2.4636,2.4636,2.4636,2.4636,2.4636,2.3836,2.3916,2.3942,2.4046,2.4087,2.4162,2.4197,2.4245,2.4289,2.4381,2.4438,2.4472,2.4526,2.46,2.4663,2.4676,2.4701,2.471,2.4724,2.466,2.4653,2.4646,2.4629,2.4715,2.4715,2.4787,2.4787,2.4788]}]]